Location: Home
(42.5358°N, 72.7383°W)
Time: 06:47:01
(UTC-05:00)

Courier 1B Rocket - Pass Details

Date: 04 December 2021
Orbit: 920 x 1202 km, 28.2° (Epoch: 25 January)

Event Time Altitude Azimuth Distance (km) Brightness Sun altitude
Rises 20:43:05 0° 205° (SSW) 3,724 - -47.9°
Reaches altitude 10° 20:49:13 10° 163° (SSE) 2,693 - -49.0°
Maximum altitude 20:49:45 10° 158° (SSE) 2,679 - -49.1°
Drops below altitude 10° 20:50:16 10° 153° (SSE) 2,681 - -49.2°
Sets 20:56:10 0° 111° (ESE) 3,573 - -50.3°
